This is the latest recevied weather packets stored in our database for station/object WB0OCV. If no packets are shown the sender has not sent any weather packets the latest 10 day(s).
| Time | Temp. | Humidity | Pressure | Rain* | Wind** | Luminosity | Snow |
|---|---|---|---|---|---|---|---|
| 1778232017 | 5° C | 80% | 1011.6 hPa | 0 mm | - | 1 W/m² | - |
| 1778231713 | 5° C | 80% | 1011.6 hPa | 0 mm | - | 0 W/m² | - |
| 1778231410 | 5° C | 80% | 1011.5 hPa | 0 mm | - | 0 W/m² | - |
| 1778231108 | 5° C | 79% | 1011.5 hPa | 0 mm | - | 0 W/m² | - |
| 1778230804 | 4.44° C | 80% | 1011.3 hPa | 0 mm | - | 0 W/m² | - |
| 1778230501 | 4.44° C | 79% | 1011.2 hPa | 0 mm | - | 0 W/m² | - |
| 1778230198 | 4.44° C | 78% | 1011 hPa | 0 mm | - | 0 W/m² | - |
| 1778229895 | 4.44° C | 77% | 1010.8 hPa | 0 mm | - | 0 W/m² | - |
| 1778229593 | 4.44° C | 79% | 1010.9 hPa | 0 mm | - | 0 W/m² | - |
| 1778229289 | 5° C | 77% | 1010.9 hPa | 0 mm | - | 0 W/m² | - |
| 1778228984 | 5° C | 76% | 1010.8 hPa | 0 mm | - | 0 W/m² | - |
| 1778228682 | 5° C | 75% | 1010.6 hPa | 0 mm | - | 0 W/m² | - |
| 1778228379 | 5° C | 74% | 1010.8 hPa | 0 mm | - | 0 W/m² | - |
| 1778228076 | 5° C | 75% | 1010.4 hPa | 0 mm | - | 0 W/m² | - |
| 1778227772 | 5.56° C | 74% | 1010.6 hPa | 0 mm | - | 0 W/m² | - |
| 1778227471 | 5.56° C | 74% | 1010.3 hPa | 0 mm | - | 0 W/m² | - |
| 1778227167 | 5.56° C | 73% | 1010.4 hPa | 0 mm | - | 0 W/m² | - |
| 1778226864 | 6.11° C | 71% | 1010.4 hPa | 0 mm | - | 0 W/m² | - |
| 1778226562 | 6.11° C | 69% | 1010.1 hPa | 0 mm | - | 0 W/m² | - |
| 1778226259 | 6.67° C | 68% | 1010.2 hPa | 0 mm | - | 0 W/m² | - |
| 1778225956 | 6.67° C | 68% | 1010.2 hPa | 0 mm | - | 0 W/m² | - |
| 1778225654 | 7.22° C | 66% | 1010 hPa | 0 mm | - | 0 W/m² | - |
| 1778225350 | 7.78° C | 65% | 1010 hPa | 0 mm | - | 0 W/m² | - |
| 1778225046 | 7.78° C | 62% | 1010.1 hPa | 0 mm | - | 0 W/m² | - |
| 1778224744 | 7.78° C | 61% | 1009.9 hPa | 0 mm | - | 0 W/m² | - |
* Rain latest hour (hover to see other rain measurements)
** Current wind speed in m/s (hover to see current wind gust speed)